Weather History for KI39 - September, 2013

Change the Weather History Date:

Friday, September 13, 2013

  Actual Average (KLOZ) Record (KLOZ)
Temperature  
Mean Temperature 60 °F 69 °F  
Max Temperature 68 °F 81 °F 94 °F (1998)
Min Temperature 51 °F 58 °F 43 °F (1964)
Degree Days  
Heating Degree Days 6 1  
Month to date heating degree days 3  
Since 1 July heating degree days 4  
Cooling Degree Days 0 5  
Month to date cooling degree days 87  
Growing Degree Days 10 (Base 50)    
Moisture  
Dew Point 51 °F    
Average Humidity 68    
Maximum Humidity 94    
Minimum Humidity 43    
Precipitation  
Precipitation 0.00 in 0.12 in 2.02 in (1966)
Month to date precipitation 1.44  
Sea Level Pressure  
Sea Level Pressure 30.01 in    
Wind  
Wind Speed 6 mph (NNW)    
Max Wind Speed 14 mph    
Max Gust Speed 18 mph    
Visibility 10 miles    
Events      
T = Trace of Precipitation, MM = Missing Value Source: NWS Daily Summary

Daily Weather History Graph

Daily Weather History Graph

Search for Another Location

Airport or City:

Trip Planner

Search our weather history database for the weather conditions in past years. The results will help you decide how hot, cold, wet, or windy it might be!

Date:

Astronomy

Sep. 13, 2013 Rise Set
Actual Time 7:17 AM EDT 7:47 PM EDT
Civil Twilight 6:51 AM EDT 8:14 PM EDT
Nautical Twilight 6:20 AM EDT 8:45 PM EDT
Astronomical Twilight 5:48 AM EDT 9:16 PM EDT
Moon 3:32 PM EDT (9/13) 12:51 AM EDT (9/13)
Length of Visible Light 13h 22m
Length of Day
12h 30m
First Quarter, 61% of the Moon is Illuminated
Sep 13
First Quarter
Sep 19
Full
Sep 26
Last Quarter
Oct 4
New
Oct 11
First Quarter

Hourly Weather History & Observations

Time (EDT) Temp. Dew Point Humidity Pressure Visibility Wind Dir Wind Speed Gust Speed Precip Events Conditions
12:15 AM 68.0 °F 64.4 °F 88% 29.94 in 10.0 mi WSW 5.8 mph - N/A   Clear
12:35 AM 66.2 °F 62.6 °F 88% 29.94 in 10.0 mi WSW 4.6 mph - N/A   Clear
12:55 AM 66.2 °F 62.6 °F 88% 29.94 in 7.0 mi WSW 5.8 mph - N/A   Clear
1:15 AM 66.2 °F 62.6 °F 88% 29.94 in 7.0 mi West 4.6 mph - N/A   Mostly Cloudy
1:35 AM 66.2 °F 62.6 °F 88% 29.94 in 7.0 mi West 3.5 mph - N/A   Mostly Cloudy
1:55 AM 66.2 °F 62.6 °F 88% 29.94 in 7.0 mi WNW 4.6 mph - N/A   Scattered Clouds
2:15 AM 66.2 °F 62.6 °F 88% 29.94 in 10.0 mi WNW 8.1 mph - N/A   Scattered Clouds
2:35 AM 66.2 °F 62.6 °F 88% 29.94 in 10.0 mi WNW 5.8 mph - N/A   Scattered Clouds
2:55 AM 66.2 °F 60.8 °F 83% 29.94 in 10.0 mi WNW 5.8 mph - N/A   Scattered Clouds
3:15 AM 66.2 °F 60.8 °F 83% 29.94 in 10.0 mi WNW 6.9 mph - N/A   Mostly Cloudy
3:35 AM 64.4 °F 60.8 °F 88% 29.94 in 10.0 mi NW 3.5 mph - N/A   Scattered Clouds
3:55 AM 64.4 °F 60.8 °F 88% 29.94 in 10.0 mi NW 3.5 mph - N/A   Clear
4:15 AM 64.4 °F 60.8 °F 88% 29.94 in 10.0 mi NW 3.5 mph - N/A   Clear
4:35 AM 62.6 °F 59.0 °F 88% 29.95 in 10.0 mi NNW 4.6 mph - N/A   Clear
4:55 AM 62.6 °F 59.0 °F 88% 29.95 in 10.0 mi NNW 6.9 mph - N/A   Clear
5:15 AM 62.6 °F 59.0 °F 88% 29.96 in 10.0 mi NNW 4.6 mph - N/A   Scattered Clouds
5:35 AM 62.6 °F 57.2 °F 82% 29.96 in 10.0 mi North 6.9 mph - N/A   Scattered Clouds
5:55 AM 60.8 °F 57.2 °F 88% 29.97 in 10.0 mi North 4.6 mph - N/A   Scattered Clouds
6:15 AM 60.8 °F 57.2 °F 88% 29.97 in 10.0 mi North 3.5 mph - N/A   Mostly Cloudy
6:35 AM 60.8 °F 57.2 °F 88% 29.98 in 10.0 mi North 3.5 mph - N/A   Scattered Clouds
6:55 AM 59.0 °F 57.2 °F 94% 29.98 in 7.0 mi North 5.8 mph - N/A   Scattered Clouds
7:15 AM 59.0 °F 55.4 °F 88% 30.00 in 10.0 mi North 6.9 mph - N/A   Clear
7:35 AM 59.0 °F 55.4 °F 88% 30.01 in 10.0 mi North 4.6 mph - N/A   Scattered Clouds
7:55 AM 59.0 °F 53.6 °F 82% 30.02 in 10.0 mi North 3.5 mph - N/A   Clear
8:15 AM 59.0 °F 53.6 °F 82% 30.02 in 10.0 mi North 4.6 mph - N/A   Clear
8:35 AM 59.0 °F 53.6 °F 82% 30.03 in 10.0 mi NNE 4.6 mph - N/A   Clear
8:55 AM 60.8 °F 55.4 °F 82% 30.03 in 10.0 mi North 8.1 mph - N/A   Clear
9:15 AM 60.8 °F 53.6 °F 77% 30.03 in 10.0 mi North 8.1 mph - N/A   Scattered Clouds
9:35 AM 60.8 °F 51.8 °F 72% 30.03 in 10.0 mi North 9.2 mph 18.4 mph N/A   Scattered Clouds
9:55 AM 60.8 °F 51.8 °F 72% 30.03 in 10.0 mi North 9.2 mph - N/A   Scattered Clouds
10:15 AM 62.6 °F 51.8 °F 68% 30.04 in 10.0 mi NNE 8.1 mph - N/A   Clear
10:35 AM 62.6 °F 50.0 °F 63% 30.04 in 10.0 mi North 10.4 mph 16.1 mph N/A   Scattered Clouds
10:55 AM 62.6 °F 50.0 °F 63% 30.04 in 10.0 mi NNE 8.1 mph - N/A   Clear
11:15 AM 62.6 °F 48.2 °F 59% 30.04 in 10.0 mi North 10.4 mph 18.4 mph N/A   Clear
11:35 AM 64.4 °F 46.4 °F 52% 30.04 in 10.0 mi North 11.5 mph 18.4 mph N/A   Clear
11:55 AM 64.4 °F 46.4 °F 52% 30.04 in 10.0 mi North 8.1 mph 18.4 mph N/A   Clear
12:15 PM 66.2 °F 46.4 °F 49% 30.04 in 10.0 mi NNW 11.5 mph - N/A   Clear
12:35 PM 66.2 °F 48.2 °F 52% 30.03 in 10.0 mi North 8.1 mph - N/A   Clear
12:55 PM 66.2 °F 48.2 °F 52% 30.03 in 10.0 mi North 9.2 mph - N/A   Clear
1:15 PM 66.2 °F 48.2 °F 52% 30.03 in 10.0 mi North 9.2 mph 17.3 mph N/A   Clear
1:35 PM 68.0 °F 48.2 °F 49% 30.02 in 10.0 mi NNW 3.5 mph - N/A   Scattered Clouds
1:55 PM 68.0 °F 48.2 °F 49% 30.02 in 10.0 mi NW 9.2 mph 16.1 mph N/A   Scattered Clouds
2:15 PM 68.0 °F 48.2 °F 49% 30.01 in 10.0 mi NNW 13.8 mph 17.3 mph N/A   Scattered Clouds
2:35 PM 68.0 °F 48.2 °F 49% 30.01 in 10.0 mi NNW 10.4 mph - N/A   Mostly Cloudy
2:55 PM 68.0 °F 46.4 °F 46% 30.01 in 10.0 mi NW 13.8 mph 18.4 mph N/A   Scattered Clouds
3:15 PM 68.0 °F 46.4 °F 46% 30.00 in 10.0 mi NW 11.5 mph 17.3 mph N/A   Scattered Clouds
3:35 PM 66.2 °F 46.4 °F 49% 30.01 in 10.0 mi North 6.9 mph - N/A   Scattered Clouds
3:55 PM 68.0 °F 46.4 °F 46% 30.01 in 7.0 mi North 10.4 mph 18.4 mph N/A   Mostly Cloudy
4:15 PM 66.2 °F 44.6 °F 46% 30.01 in 10.0 mi North 9.2 mph - N/A   Scattered Clouds
4:35 PM 68.0 °F 44.6 °F 43% 30.01 in 10.0 mi NW 10.4 mph - N/A   Scattered Clouds
4:55 PM 66.2 °F 44.6 °F 46% 30.01 in 10.0 mi NW 10.4 mph - N/A   Scattered Clouds
5:15 PM 64.4 °F 44.6 °F 49% 30.01 in 10.0 mi NNW 8.1 mph - N/A   Scattered Clouds
5:35 PM 68.0 °F 44.6 °F 43% 30.00 in 10.0 mi North 6.9 mph - N/A   Clear
5:55 PM 64.4 °F 44.6 °F 49% 30.01 in 10.0 mi North 6.9 mph - N/A   Scattered Clouds
6:15 PM 66.2 °F 44.6 °F 46% 30.01 in 10.0 mi North 8.1 mph - N/A   Scattered Clouds
6:35 PM 64.4 °F 44.6 °F 49% 30.02 in 7.0 mi North 9.2 mph 17.3 mph N/A   Scattered Clouds
6:55 PM 64.4 °F 44.6 °F 49% 30.03 in 10.0 mi North 8.1 mph - N/A   Clear
7:15 PM 62.6 °F 44.6 °F 52% 30.03 in 10.0 mi North 6.9 mph - N/A   Scattered Clouds
7:35 PM 60.8 °F 44.6 °F 55% 30.03 in 10.0 mi North 6.9 mph - N/A   Clear
7:55 PM 59.0 °F 42.8 °F 55% 30.03 in 10.0 mi NNE 8.1 mph - N/A   Clear
8:15 PM 59.0 °F 44.6 °F 59% 30.04 in 10.0 mi North 5.8 mph - N/A   Clear
8:35 PM 57.2 °F 44.6 °F 63% 30.05 in 10.0 mi NNE 5.8 mph - N/A   Clear
8:55 PM 57.2 °F 42.8 °F 59% 30.05 in 10.0 mi NE 5.8 mph - N/A   Clear
9:15 PM 55.4 °F 44.6 °F 67% 30.06 in 10.0 mi NNE 4.6 mph - N/A   Clear
9:35 PM 55.4 °F 44.6 °F 67% 30.06 in 10.0 mi Calm Calm - N/A   Clear
9:55 PM 53.6 °F 44.6 °F 72% 30.07 in 10.0 mi NE 3.5 mph - N/A   Clear
10:15 PM 53.6 °F 42.8 °F 67% 30.07 in 10.0 mi Calm Calm - N/A   Clear
10:35 PM 53.6 °F 44.6 °F 72% 30.07 in 10.0 mi Calm Calm - N/A   Clear
10:55 PM 51.8 °F 44.6 °F 76% 30.07 in 10.0 mi Calm Calm - N/A   Clear
11:15 PM 51.8 °F 44.6 °F 76% 30.08 in 10.0 mi Calm Calm - N/A   Clear
11:35 PM 51.8 °F 44.6 °F 76% 30.07 in 10.0 mi Calm Calm - N/A   Clear
11:55 PM 51.8 °F 44.6 °F 76% 30.07 in 10.0 mi Calm Calm - N/A   Clear